Barcelona, Spain

3:30 AM CEST en Agosto 22, 2017 (GMT +0200)
El Prat

Tiempo Historia de LEBL - Marzo, 2017

Change the Weather History Date:

Martes, Marzo 21, 2017

  Actual Average Record
Temperature  
Temperatura media 56 ° F -  
Temperatura máxima 63 ° F 61 ° F 68 ° F (2001)
Temperatura mínima 48 ° F 48 ° F 39 ° F (2007)
Degree Days  
Grados día de calefacción 10    
Growing Degree Days 6 (Base 50)    
Moisture  
Punto de rocío 50 ° F    
Average Humidity 74    
Maximum Humidity 88    
Minimum Humidity 59    
Precipitación  
Precipitación 0.00 pul 0.07 pul - ()
Presión al nivel del mar  
Presión al nivel del mar 29.95 pul    
Viento  
Velocidad del viento 6 mph ()    
Velocidad máxima del viento 12 mph    
Max Gust Speed -    
Visibilidad 8.1 Millas    
Eventos      
Averages and records for this station are not official NWS values.
T = Trace of Precipitation, MM = Missing Value Source: Averaged Metar Reports

Daily Weather History Graph

Daily Weather History Graph

Search for Another Location

Airport or City:

Trip Planner

Search our weather history database for the weather conditions in past years. The results will help you decide how hot, cold, wet, or windy it might be!

Date:

Astronomía

Mar. 21, 2017 Salida Puesta
Hora real 6:53 AM CET 7:05 PM CET
Crepúsculo civil 6:25 AM CET 7:32 PM CET
Crepúsculo náutico 5:53 AM CET 8:04 PM CET
Crepúsculo astronómico 5:20 AM CET 8:37 PM CET
Luna 2:27 AM CET (3/21) 12:26 PM CET (3/21)
Horas de luz 13h 06m
Horas de luz
12h 11m
Cuarto menguante, 42% of the Moon is Illuminated
Mar 21
Cuarto menguante
Mar 28
Nueva
Abr 3
Cuarto creciente
Abr 11
Luna llena
Abr 19
Cuarto menguante

Hourly Weather History & Observations

Hora (CET) Temp. Punto de rocío Humedad Presión Visibilidad Wind Dir Velocidad del viento Velocidad de ráfagas Precip Eventos Condiciones
12:00 AM 54 ° F 45 ° F 63% 29.96 pul 12 mi Norte 4.6 mph - -   Despejado
12:00 AM 53.6 ° F 44.6 ° F 72% 29.95 pul 6.2 mi NO 2.3 mph - N/A   Parcialmente nublado
12:30 AM 53.6 ° F 44.6 ° F 72% 29.95 pul 6.2 mi NO 1.2 mph - N/A   Parcialmente nublado
1:00 AM 53 ° F 44 ° F 64% 29.96 pul 9 mi Norte 6.9 mph - -   Nubes dispersas
1:00 AM 51.8 ° F 44.6 ° F 76% 29.95 pul 6.2 mi NO 5.8 mph - N/A   Parcialmente nublado
1:30 AM 51.8 ° F 44.6 ° F 76% 29.95 pul 6.2 mi NO 6.9 mph - N/A   Parcialmente nublado
2:00 AM 52 ° F 43 ° F 64% 29.95 pul 11 mi Norte 8.1 mph - -  
2:00 AM 51.8 ° F 42.8 ° F 71% 29.95 pul 6.2 mi NNO 5.8 mph - N/A   Parcialmente nublado
2:30 AM 51.8 ° F 42.8 ° F 71% 29.95 pul 6.2 mi NNO 6.9 mph - N/A   Parcialmente nublado
3:00 AM 51 ° F 43 ° F 67% 29.95 pul 9 mi Norte 8.1 mph - -  
3:00 AM 51.8 ° F 42.8 ° F 71% 29.95 pul 6.2 mi NNO 4.6 mph - N/A   Parcialmente nublado
3:30 AM 50.0 ° F 42.8 ° F 76% 29.95 pul 5.6 mi NNO 5.8 mph - N/A   Nubes dispersas
4:00 AM 51 ° F 43 ° F 66% 29.95 pul 7 mi Norte 8.1 mph - -   Nubes dispersas
4:00 AM 51.8 ° F 42.8 ° F 71% 29.95 pul 5.6 mi NNO 5.8 mph - N/A   Parcialmente nublado
4:30 AM 50.0 ° F 42.8 ° F 76% 29.92 pul 5.6 mi NNO 5.8 mph - N/A   Nubes dispersas
5:00 AM 50.0 ° F 42.8 ° F 76% 29.95 pul 5.6 mi NO 5.8 mph - N/A   Nubes dispersas
5:30 AM 50.0 ° F 42.8 ° F 76% 29.95 pul 5.6 mi NNO 5.8 mph - N/A   Parcialmente nublado
6:00 AM 50 ° F 43 ° F 69% 29.95 pul 8 mi Norte 8.1 mph - -  
6:00 AM 50.0 ° F 42.8 ° F 76% 29.95 pul 5.6 mi NNO 6.9 mph - N/A   Parcialmente nublado
6:30 AM 50.0 ° F 42.8 ° F 76% 29.95 pul 5.6 mi NNO 9.2 mph - N/A   Nubes dispersas
7:00 AM 50 ° F 42 ° F 65% 29.96 pul 6 mi Norte 10.4 mph - -   Nubes dispersas
7:00 AM 50.0 ° F 41.0 ° F 71% 29.95 pul 5.6 mi NNO 9.2 mph - N/A   Nubes dispersas
7:30 AM 48.2 ° F 41.0 ° F 76% 29.95 pul 5.6 mi NNO 8.1 mph - N/A   Nubes dispersas
8:00 AM 51 ° F 43 ° F 67% 29.98 pul 7 mi Norte 8.1 mph - -  
8:00 AM 50.0 ° F 42.8 ° F 76% 29.98 pul 5.6 mi NNO 8.1 mph - N/A   Nubes dispersas
8:30 AM 51.8 ° F 44.6 ° F 76% 29.98 pul 6.2 mi NNO 6.9 mph - N/A   Nubes dispersas
9:00 AM 55 ° F 46 ° F 64% 29.98 pul 7 mi Norte 6.9 mph - -  
9:00 AM 53.6 ° F 46.4 ° F 77% 29.98 pul 6.2 mi NNO 5.8 mph - N/A   Nubes dispersas
9:30 AM 57.2 ° F 48.2 ° F 72% 29.98 pul 6.2 mi NNO 3.5 mph - N/A   Muy nublado
10:00 AM 60 ° F 51 ° F 63% 30.00 pul 9 mi Norte 3.5 mph - -   Parcialmente nublado
10:00 AM 59.0 ° F 50.0 ° F 72% 29.98 pul 6.2 mi ESE 4.6 mph - N/A   Muy nublado
10:30 AM 60.8 ° F 53.6 ° F 77% 29.98 pul 6.2 mi ESE 4.6 mph - N/A   Muy nublado
11:00 AM 63 ° F 53 ° F 62% 29.99 pul 19 mi Sur 6.9 mph - -  
11:00 AM 60.8 ° F 51.8 ° F 72% 29.98 pul 6.2 mi SSE 9.2 mph - N/A   Nubes dispersas
11:30 AM 60.8 ° F 53.6 ° F 77% 29.98 pul 6.2 mi SSE 8.1 mph - N/A   Nubes dispersas
12:00 PM 63 ° F 54 ° F 63% 29.98 pul 19 mi Sur 8.1 mph - -  
12:00 PM 60.8 ° F 53.6 ° F 77% 29.98 pul 6.2 mi SSE 6.9 mph - N/A   Nubes dispersas
12:30 PM 60.8 ° F 53.6 ° F 77% 29.98 pul 6.2 mi Sur 8.1 mph - N/A   Nubes dispersas
1:00 PM 63 ° F 53 ° F 62% 29.96 pul 12 mi Sur 8.1 mph - -   Parcialmente nublado
1:00 PM 62.6 ° F 53.6 ° F 72% 29.95 pul 6.2 mi SSE 9.2 mph - N/A   Nubes dispersas
1:30 PM 60.8 ° F 51.8 ° F 72% 29.95 pul 6.2 mi Sur 9.2 mph - N/A   Nubes dispersas
2:00 PM 63 ° F 53 ° F 62% 29.95 pul 16 mi SSO 10.4 mph - -  
2:00 PM 60.8 ° F 51.8 ° F 72% 29.95 pul 6.2 mi Sur 11.5 mph - N/A   Nubes dispersas
2:30 PM 60.8 ° F 53.6 ° F 77% 29.92 pul 6.2 mi Sur 9.2 mph - N/A   Nubes dispersas
3:00 PM 64 ° F 53 ° F 59% 29.93 pul 19 mi SSO 10.4 mph - -  
3:00 PM 62.6 ° F 53.6 ° F 72% 29.92 pul 6.2 mi Sur 10.4 mph - N/A   Nubes dispersas
3:30 PM 60.8 ° F 53.6 ° F 77% 29.92 pul 6.2 mi Sur 9.2 mph - N/A   Nubes dispersas
4:00 PM 62 ° F 53 ° F 65% 29.92 pul 19 mi SSO 10.4 mph - -  
4:00 PM 60.8 ° F 53.6 ° F 77% 29.92 pul 6.2 mi Sur 11.5 mph - N/A   Nubes dispersas
4:30 PM 60.8 ° F 53.6 ° F 77% 29.92 pul 6.2 mi Sur 10.4 mph - N/A   Nubes dispersas
5:00 PM 62 ° F 54 ° F 68% 29.91 pul 19 mi SO 9.2 mph - -  
5:00 PM 60.8 ° F 53.6 ° F 77% 29.89 pul 6.2 mi SSO 10.4 mph - N/A   Muy nublado
5:30 PM 60.8 ° F 53.6 ° F 77% 29.89 pul 6.2 mi SSO 9.2 mph - N/A   Muy nublado
6:00 PM 61 ° F 54 ° F 71% 29.92 pul 19 mi SO 9.2 mph - -  
6:00 PM 60.8 ° F 53.6 ° F 77% 29.89 pul 6.2 mi SSO 9.2 mph - N/A   Nubes dispersas
6:30 PM 59.0 ° F 53.6 ° F 82% 29.92 pul 6.2 mi SSO 8.1 mph - N/A   Nubes dispersas
7:00 PM 60 ° F 55 ° F 78% 29.93 pul 9 mi SSO 4.6 mph - -   Nublado
7:00 PM 59.0 ° F 53.6 ° F 82% 29.92 pul 6.2 mi SSO 5.8 mph - N/A   Nubes dispersas
7:30 PM 59.0 ° F 53.6 ° F 82% 29.92 pul 6.2 mi Sur 4.6 mph - N/A   Nubes dispersas
8:00 PM 60 ° F 54 ° F 76% 29.95 pul 16 mi Sur 4.6 mph - -  
8:00 PM 59.0 ° F 53.6 ° F 82% 29.92 pul 6.2 mi SE 3.5 mph - N/A   Nubes dispersas
8:30 PM 59.0 ° F 55.4 ° F 88% 29.95 pul 6.2 mi Variable 2.3 mph - N/A   Muy nublado
9:00 PM 59 ° F 55 ° F 84% 29.98 pul 11 mi Sur 3.5 mph - -  
9:00 PM 59.0 ° F 55.4 ° F 88% 29.98 pul 6.2 mi ESE 3.5 mph - N/A   Nubes dispersas
9:30 PM 59.0 ° F 55.4 ° F 88% 29.98 pul 6.2 mi ESE 5.8 mph - N/A   Nubes dispersas
10:00 PM 59 ° F 55 ° F 84% 29.99 pul 9 mi SSE 5.8 mph - -   Parcialmente nublado
10:00 PM 59.0 ° F 55.4 ° F 88% 29.98 pul 6.2 mi ESE 4.6 mph - N/A   Parcialmente nublado
10:30 PM 59.0 ° F 55.4 ° F 88% 29.98 pul 6.2 mi ESE 6.9 mph - N/A   Parcialmente nublado
11:00 PM 59 ° F 56 ° F 85% 29.98 pul 14 mi SE 6.9 mph - -  
11:00 PM 59.0 ° F 55.4 ° F 88% 29.95 pul 6.2 mi SE 8.1 mph - N/A   Parcialmente nublado
11:30 PM 57.2 ° F 53.6 ° F 88% 29.98 pul 6.2 mi SSE 9.2 mph - N/A   Nubes dispersas